Вернуться в каталог

ORBASTRO-PC-1

АктивенНаукаSSO
NORAD 58258·PAYLOAD·🇬🇧 United Kingdom

Запущен Nov 11, 2023 с Vandenberg Space Force Base

Loading…

Ближайшие Пролёты (ближайшие 24 часа)

TLE

СвежийSource: Space-Track

Эпоха: Sep 14, 2026, 12:00 UTC

1 58258U 23174C   26257.50020265  .00023156  00000-0  37440-3 0  9995
2 58258  97.3742 345.7246 0006177 182.6703 177.4518 15.52831847159317

Отслеживайте ORBASTRO-PC-1 в реальном времени с AllMySat

Download on the App Store